Location: Briis
(48.6240°N, 2.1211°E)
Time: 16:02:06
(UTC+00:00)

Cosmos 1975 - Pass Details

Date: 25 September 2020
Orbit: 541 x 562 km, 82.5° (Epoch: 21 October)

Event Time Altitude Azimuth Distance (km) Brightness Sun altitude
Rises 04:17:14 0° 355° (N) 2,735 6.5 -14.8°
Reaches altitude 10° 04:19:29 10° 1° (N) 1,832 5.7 -14.4°
Maximum altitude 04:23:22 46° 76° (ENE) 741 4.0 -13.8°
Drops below altitude 10° 04:27:12 10° 151° (SSE) 1,807 5.6 -13.2°
Sets 04:29:24 0° 157° (SSE) 2,692 6.5 -12.9°
